Regional Weather Roundup
Issued by NWS

Home | Current Version | Previous Version | Text Only | Print | Product List | Glossary On
Versions: 1 2 3 4 5 6 7 8 9 10 11 12 13 14 15 16 17 18 19 20 21 22 23 24 25 26 27 28 29 30 31 32 33 34 35 36 37 38 39 40 41 42 43 44 45 46 47 48 49 50
000
ASUS43 KLSX 111459
RWRMO

WEATHER SUMMARY FOR MISSOURI
NATIONAL WEATHER SERVICE SPRINGFIELD MO
1000 AM CDT FRI JUL 11 2014

NOTE: "FAIR" INDICATES FEW OR NO CLOUDS BELOW 12,000 FEET WITH NO
       SIGNIFICANT WEATHER AND/OR OBSTRUCTIONS TO VISIBILITY.
       CURRENT SKY AND/OR WEATHER CONDITIONS ARE NOT AVAILABLE FOR
       CHILLICOTHE AND FARMINGTON.

MOZ001>031-035>038-043-044-053-054-111600-
...NORTHERN AND WESTERN MISSOURI...

CITY           SKY/WX    TMP DP  RH WIND       PRES   REMARKS
KANSAS CTY INT PTSUNNY   76  69  79 S12       30.05R
KANSAS C DTWN  MOSUNNY   80  69  69 S13       30.04S
LEE`S SUMMIT   MOSUNNY   78  68  71 S10G18    30.07S
ST JOSEPH      CLOUDY    75  69  81 S10       30.04R
CHILLICOTHE      N/A     76  67  73 S8        30.08F
KIRKSVILLE     SUNNY     76  67  73 SE14      30.13S

$$
MOZ066>068-077>081-088>096-101>105-111600-
...SOUTHWEST MISSOURI...

CITY           SKY/WX    TMP DP  RH WIND       PRES   REMARKS
SPRINGFIELD    SUNNY     79  69  71 S12       30.15R
JOPLIN         SUNNY     82  69  64 S14       30.11S

$$
MOZ032>034-039>042-045>050-055>058-069>072-111600-
...CENTRAL MISSOURI...

CITY           SKY/WX    TMP DP  RH WIND       PRES   REMARKS
COLUMBIA       MOSUNNY   78  68  71 S9        30.14S
JEFFERSON CITY MOSUNNY   78  67  68 VRB5      30.13S
ROLLA          CLOUDY    76  66  71 SE9       30.16S
SEDALIA        MOSUNNY   80  69  69 S12       30.11F
OSAGE BEACH    MOSUNNY   79  66  65 S7        30.14S

$$
MOZ051-052-059>065-111600-
...EAST CENTRAL MISSOURI...

CITY           SKY/WX    TMP DP  RH WIND       PRES   REMARKS
ST LOUIS INTL  MOSUNNY   80  62  54 SE8       30.18S
SPIRIT OF STL  SUNNY     79  63  57 VRB7      30.16S
ST CHARLES     SUNNY     77  64  64 E5        30.17S

$$
MOZ072>076-082>087-097>100-106>115-111600-
...SOUTH CENTRAL AND SOUTHEAST MISSOURI...

CITY           SKY/WX    TMP DP  RH WIND       PRES   REMARKS
CAPE GIRARDEAU SUNNY     81  63  54 E7        30.17S
FARMINGTON     SUNNY     77  64  65 SE7       30.22R
POPLAR BLUFF   CLOUDY    76  67  73 VRB3      30.16F
WEST PLAINS    PTSUNNY   76  67  73 VRB5      30.19S

$$


USA.gov is the U.S. government's official web portal to all federal, state and local government web resources and services.